Flag for U.S.A. Weather past 2 weeks in Barnstable, Massachusetts, U.S.A.

Now
59 °F

Overcast.


Feels Like: 58 °F
Forecast: 56 / 63 °F
Wind: 8 mph from North

Location: Barnstable Municipal-Boardman Airport

Current Time: Oct 23, 2014 at 11:37:23 AM

Latest Report: Oct 23, 2014 at 10:56 AM


Visibility: 9 mi

Pressure: 29.54 "Hg

Humidity: 93%

Dew point: 57 °F

Location of BarnstableLocation

Historic Weather in Barnstable — Graph

°F

Barnstable temperature yesterday

Maximum temperature yesterday: 60 °F (at 6:56 PM)
Minimum temperature yesterday: 54 °F (at 1:56 AM)
Average temperature yesterday: 58 °F

Past Weeks' High & Low Weather Summary

 TemperatureHumidityPressure
High75 °F (Oct 15, 1:56 PM)97% (Oct 22, 9:56 AM)30.37 "Hg (Oct 22, 9:56 AM)
Low37 °F (Oct 13, 4:56 AM)31% (Oct 9, 12:56 PM)29.51 "Hg (Oct 18, 4:56 PM)
Average59 °F77%29.95 "Hg
* Reported Oct 8 9:56 AM — Oct 23 9:56 AM, Barnstable, Weather by CustomWeather, © 2014

Note: Actual official high and low records may vary slightly from our data, if they occured in-between our weather recording intervals... More about our weather records

Advertising

Barnstable weather history for previous 24 hours

 ConditionsComfort  
Time TempWeatherWind HumidityBarometerVisibility
9:56 AM
Oct 23
59 °FCloudy.12 mph87%29.54 "Hg10 mi
8:56 AM59 °FScattered clouds.12 mph90%29.54 "Hg10 mi
7:56 AM58 °FPassing clouds.13 mph90%29.53 "Hg10 mi
6:56 AM58 °FPassing clouds.15 mph90%29.53 "Hg10 mi
5:56 AM59 °FOvercast.14 mph93%29.52 "Hg10 mi
4:56 AM60 °FLight rain. Mostly cloudy.8 mph93%29.56 "Hg10 mi
3:56 AM60 °FPassing clouds.9 mph93%29.54 "Hg10 mi
2:56 AM60 °FPassing clouds.12 mph93%29.56 "Hg10 mi
1:56 AM60 °FPassing clouds.7 mph93%29.63 "Hg10 mi
12:56 AM59 °FThundershowers. Mostly cloudy.10 mph96%29.65 "Hg7 mi
11:56 PM
Oct 22
59 °FStrong thunderstorms. Fog.15 mph93%29.65 "Hg1 mi
10:56 PM60 °FLight rain. Low clouds.20 mph93%29.65 "Hg9 mi
9:56 PM59 °FThundershowers. Low clouds.17 mph93%29.67 "Hg9 mi
8:56 PM58 °FLow clouds.21 mph93%29.69 "Hg10 mi
7:56 PM58 °FLight rain. Fog.28 mph93%29.68 "Hg2 mi
6:56 PM60 °FLow clouds.16 mph93%29.70 "Hg8 mi
5:56 PM59 °FLow clouds.13 mph96%29.73 "Hg9 mi
4:56 PM57 °FLight rain. Low clouds.10 mph93%29.73 "Hg7 mi
4:03 PM57 °FFog.14 mph90%29.79 "Hg6 mi
3:56 PM56 °FFog.21 mph93%29.80 "Hg2 mi
2:56 PM56 °FLight rain. Fog.17 mph93%29.81 "Hg2 mi
1:56 PM57 °FLow clouds.23 mph90%29.83 "Hg10 mi
12:56 PM58 °FLight rain. Fog.20 mph93%29.84 "Hg1 mi
11:56 AM59 °FLight rain. Fog.15 mph93%29.86 "Hg1 mi
Weather by CustomWeather, © 2014

See weather overviewHow to use our weather pages